Lethbridge,

5:32 AM MST on November 18, 2017 (GMT -0700)
Lethbridge

Weather History for CYQL - May, 2014

Change the Weather History Date:

Tuesday, May 6, 2014

  Actual Average Record
Temperature  
Mean Temperature 32 °F -  
Max Temperature 37 °F 57 °F 77 °F (2013)
Min Temperature 28 °F 32 °F 1 °F (2014)
Degree Days  
Heating Degree Days 32    
Moisture  
Dew Point 29 °F    
Average Humidity 84    
Maximum Humidity 100    
Minimum Humidity 52    
Precipitation  
Precipitation 0.08 in - - ()
Sea Level Pressure  
Sea Level Pressure 30.06 in    
Wind  
Wind Speed 11 mph ()    
Max Wind Speed 22 mph    
Max Gust Speed 28 mph    
Visibility 8.1 miles    
Events Snow    
Averages and records for this station are not official NWS values.
T = Trace of Precipitation, MM = Missing Value Source: Averaged Metar Reports

Daily Weather History Graph

Daily Weather History Graph

Search for Another Location

Airport or City:

Trip Planner

Search our weather history database for the weather conditions in past years. The results will help you decide how hot, cold, wet, or windy it might be!

Date:

Astronomy

May. 06, 2014 Rise Set
Actual Time 5:59 AM MDT 8:56 PM MDT
Civil Twilight 5:22 AM MDT 9:33 PM MDT
Nautical Twilight 4:34 AM MDT 10:22 PM MDT
Astronomical Twilight 3:35 AM MDT 11:22 PM MDT
Moon 12:27 PM MDT (5/6) 2:11 AM MDT (5/6)
Length of Visible Light 16h 11m
Length of Day
14h 56m
Waxing Crescent, 46% of the Moon is Illuminated
May 6
Waxing Crescent
May 6
First Quarter
May 14
Full
May 21
Last Quarter
May 28
New

Hourly Weather History & Observations

Time (MDT) Temp. Windchill Dew Point Humidity Pressure Visibility Wind Dir Wind Speed Gust Speed Precip Events Conditions
12:00 AM 39 °F - 36 °F 85% 29.88 in 10 mi NE 10.4 mph - -   Clear
12:00 AM 39.2 °F 32.0 °F 35.6 °F 87% 29.88 in 9.0 mi NE 11.5 mph - N/A   Scattered Clouds
1:00 AM 39.2 °F 33.0 °F 37.4 °F 93% 29.88 in 6.0 mi NE 9.2 mph - N/A   Scattered Clouds
6:00 AM 33 °F - 32 °F 94% 29.95 in 1 mi NW 13.8 mph - - Snow Light Snow
6:00 AM 32.0 °F 22.1 °F 32.0 °F 100% 29.95 in 1.5 mi NW 13.8 mph - N/A Snow Light Snow
6:06 AM 32.0 °F 22.1 °F 32.0 °F 100% 29.95 in 0.8 mi NW 13.8 mph - N/A Snow Light Snow
6:45 AM 32.0 °F 21.6 °F 32.0 °F 100% 29.97 in 1.0 mi NNW 15.0 mph 23.0 mph N/A Snow Light Snow
7:00 AM 32.0 °F 21.2 °F 30.2 °F 93% 29.99 in 0.6 mi North 16.1 mph 27.6 mph N/A Snow Light Snow
7:21 AM 32.0 °F 20.1 °F 30.2 °F 93% 30.00 in 0.8 mi North 19.6 mph - N/A Snow Light Snow
7:35 AM 32.0 °F 21.2 °F 30.2 °F 93% 30.01 in 1.5 mi North 16.1 mph 24.2 mph N/A Snow Light Snow
7:52 AM 30.2 °F 17.1 °F 30.2 °F 100% 30.02 in 1.0 mi NNW 21.9 mph 27.6 mph N/A Snow Light Snow Showers
8:17 AM 30.2 °F 21.9 °F 28.4 °F 93% 30.04 in 1.0 mi NNW 9.2 mph 18.4 mph N/A Snow Light Snow Showers
8:35 AM 30.2 °F 20.2 °F 28.4 °F 93% 30.05 in 1.5 mi NW 12.7 mph - N/A Snow Light Snow Showers
9:00 AM 30.2 °F 18.5 °F 28.4 °F 93% 30.07 in 1.5 mi NNW 17.3 mph 24.2 mph N/A Snow Light Snow Showers
9:35 AM 30.2 °F 20.2 °F 28.4 °F 93% 30.08 in 0.8 mi NW 12.7 mph 19.6 mph N/A Snow Light Snow Showers
9:45 AM 30.2 °F 18.1 °F 28.4 °F 93% 30.08 in 0.5 mi NW 18.4 mph - N/A Snow Snow Showers
10:00 AM 28.4 °F 16.2 °F 26.6 °F 93% 30.09 in 0.5 mi NW 17.3 mph 26.5 mph N/A Snow Snow Showers
10:11 AM 30.2 °F 19.8 °F 28.4 °F 93% 30.09 in 1.0 mi NW 13.8 mph 19.6 mph N/A Snow Light Snow Showers
10:42 AM 30.2 °F 20.2 °F 26.6 °F 86% 30.10 in 0.6 mi NW 12.7 mph 19.6 mph N/A Snow Light Snow Showers
11:00 AM 30.2 °F 20.2 °F 28.4 °F 93% 30.11 in 1.0 mi NW 12.7 mph - N/A Snow Light Snow Showers
11:25 AM 30.2 °F 19.8 °F 26.6 °F 86% 30.11 in 3.0 mi NNW 13.8 mph 20.7 mph N/A Snow Light Snow Showers
11:51 AM 32.0 °F 22.5 °F 28.4 °F 87% 30.10 in 6.0 mi NW 12.7 mph - N/A Snow Light Snow Showers
12:00 PM 32 °F - 28 °F 79% 30.10 in 10 mi NW 12.7 mph - - Snow Light Snow
12:00 PM 32.0 °F 22.5 °F 28.4 °F 87% 30.10 in 6.0 mi NW 12.7 mph - N/A Snow Light Snow Showers
1:00 PM 33.8 °F 25.3 °F 28.4 °F 81% 30.10 in 12.0 mi North 11.5 mph 18.4 mph N/A   Overcast
2:09 PM 35.6 °F 28.0 °F 26.6 °F 70% 30.08 in 15.0 mi North 10.4 mph - N/A   Overcast
3:00 PM 35.6 °F 28.6 °F 26.6 °F 70% 30.08 in 20.0 mi North 9.2 mph - N/A Snow Light Snow Showers
3:36 PM 35.6 °F 27.5 °F 26.6 °F 70% 30.08 in 20.0 mi North 11.5 mph 18.4 mph N/A   Overcast
4:00 PM 35.6 °F 28.0 °F 26.6 °F 70% 30.09 in 20.0 mi NNW 10.4 mph 18.4 mph N/A   Overcast
5:00 PM 35.6 °F 27.5 °F 26.6 °F 70% 30.10 in 20.0 mi North 11.5 mph 18.4 mph N/A   Overcast
6:00 PM 36 °F - 25 °F 52% 30.12 in 10 mi North 8.1 mph - -   Overcast
6:00 PM 35.6 °F 29.2 °F 24.8 °F 65% 30.12 in 20.0 mi NNW 8.1 mph - N/A   Overcast
7:00 PM 37.4 °F 29.3 °F 24.8 °F 60% 30.13 in 20.0 mi NW 12.7 mph - N/A   Overcast
7:43 PM 35.6 °F 28.0 °F 24.8 °F 65% 30.13 in 20.0 mi NNE 10.4 mph - N/A Snow Light Snow Showers
8:00 PM 35.6 °F 27.5 °F 24.8 °F 65% 30.14 in 20.0 mi North 11.5 mph 18.4 mph N/A   Mostly Cloudy
9:00 PM 33.8 °F 27.7 °F 26.6 °F 75% 30.15 in 20.0 mi NNE 6.9 mph - N/A   Scattered Clouds
10:00 PM 32.0 °F - 26.6 °F 80% 30.18 in 15.0 mi North 2.3 mph - N/A   Mostly Cloudy
11:00 PM 32.0 °F - 24.8 °F 75% 30.17 in 9.0 mi NW 2.3 mph - N/A   Overcast